NKS5487 KFLL-KEYW

Flight info

Callsign NKS5487
Flight time 0h 42m
Altitude 22000
Route MAYNR3 MAYNR FNTSY FNTSY1
Aircraft A321/M-SDE3FGHIRWY/LB1

Departure

Time 2026-05-03 21:31
Airport Fort Lauderdale Hollywood International Airport (KFLL)

Arrival

Time 2026-05-03 22:13
Airport Key West International Airport (KEYW)
Time Latitude Longitude Altitude Speed Heading
2026-05-03 20:44 26.06879 -80.14384 16 ft 0 kts
2026-05-03 20:58 26.06863 -80.14385 18 ft 3 kts 356°
2026-05-03 20:58 26.06844 -80.14382 18 ft 3 kts 341°
2026-05-03 20:58 26.06827 -80.14373 16 ft 3 kts 313°
2026-05-03 20:58 26.06818 -80.14358 16 ft 2 kts 274°
2026-05-03 20:59 26.06818 -80.14357 16 ft 0 kts 272°
2026-05-03 21:00 26.06818 -80.14383 16 ft 6 kts 270°
2026-05-03 21:01 26.06818 -80.14417 16 ft 0 kts 270°
2026-05-03 21:03 26.06818 -80.14418 16 ft 0 kts 270°
2026-05-03 21:03 26.06819 -80.14431 16 ft 3 kts 270°
2026-05-03 21:03 26.06819 -80.14462 16 ft 5 kts 270°
2026-05-03 21:03 26.06819 -80.14469 16 ft 0 kts 270°
2026-05-03 21:04 26.06819 -80.14470 16 ft 0 kts 270°
2026-05-03 21:07 26.06819 -80.14471 16 ft 3 kts 270°
2026-05-03 21:07 26.06797 -80.14573 15 ft 15 kts 225°
2026-05-03 21:07 26.06766 -80.14690 15 ft 20 kts 270°
2026-05-03 21:08 26.06767 -80.14862 15 ft 21 kts 270°
2026-05-03 21:08 26.06768 -80.15002 16 ft 13 kts 270°
2026-05-03 21:08 26.06765 -80.15097 16 ft 13 kts 255°
2026-05-03 21:08 26.06702 -80.15156 20 ft 11 kts 233°
2026-05-03 21:09 26.06695 -80.15242 20 ft 14 kts 270°
2026-05-03 21:09 26.06696 -80.15382 16 ft 18 kts 269°
2026-05-03 21:09 26.06697 -80.15511 16 ft 14 kts 271°
2026-05-03 21:09 26.06698 -80.15598 16 ft 0 kts 270°
2026-05-03 21:10 26.06698 -80.15600 16 ft 0 kts 270°
2026-05-03 21:12 26.06698 -80.15603 16 ft 3 kts 270°
2026-05-03 21:12 26.06698 -80.15642 16 ft 3 kts 270°
2026-05-03 21:12 26.06698 -80.15650 16 ft 1 kts 271°
2026-05-03 21:12 26.06698 -80.15654 16 ft 0 kts 271°
2026-05-03 21:13 26.06698 -80.15656 16 ft 1 kts 271°
2026-05-03 21:14 26.06698 -80.15665 16 ft 0 kts 271°
2026-05-03 21:18 26.06698 -80.15667 16 ft 1 kts 271°
2026-05-03 21:19 26.06699 -80.15678 16 ft 2 kts 271°
2026-05-03 21:19 26.06699 -80.15701 16 ft 4 kts 271°
2026-05-03 21:19 26.06699 -80.15715 16 ft 0 kts 270°
2026-05-03 21:22 26.06699 -80.15718 16 ft 1 kts 270°
2026-05-03 21:23 26.06699 -80.15740 16 ft 4 kts 270°
2026-05-03 21:23 26.06699 -80.15742 16 ft 0 kts 270°
2026-05-03 21:27 26.06699 -80.15743 16 ft 0 kts 270°
2026-05-03 21:28 26.06699 -80.15764 16 ft 5 kts 270°
2026-05-03 21:28 26.06691 -80.15807 16 ft 6 kts 237°
2026-05-03 21:28 26.06685 -80.15811 16 ft 0 kts 213°
2026-05-03 21:29 26.06679 -80.15814 16 ft 3 kts 202°
2026-05-03 21:29 26.06627 -80.15822 17 ft 13 kts 184°
2026-05-03 21:29 26.06590 -80.15770 19 ft 5 kts 92°
2026-05-03 21:30 26.06590 -80.15766 19 ft 0 kts 91°
2026-05-03 21:30 26.06588 -80.15645 23 ft 53 kts 90°
2026-05-03 21:30 26.06584 -80.14898 19 ft 136 kts 90°
2026-05-03 21:30 26.06578 -80.13629 273 ft 180 kts 89°
2026-05-03 21:31 26.06572 -80.12248 1291 ft 180 kts 87°
2026-05-03 21:31 26.06595 -80.10816 2043 ft 192 kts 87°
2026-05-03 21:31 26.06628 -80.09257 2285 ft 212 kts 88°
2026-05-03 21:31 26.06658 -80.07536 2431 ft 234 kts 88°
2026-05-03 21:32 26.06683 -80.05628 2579 ft 259 kts 88°
2026-05-03 21:32 26.06704 -80.03570 3079 ft 272 kts 89°
2026-05-03 21:32 26.06721 -80.01447 3722 ft 278 kts 89°
2026-05-03 21:32 26.06742 -79.99280 3944 ft 281 kts 89°
2026-05-03 21:33 26.06787 -79.97108 4001 ft 279 kts 89°
2026-05-03 21:33 26.06841 -79.94949 4003 ft 281 kts 88°
2026-05-03 21:33 26.06898 -79.92774 4004 ft 282 kts 88°
2026-05-03 21:33 26.06955 -79.90599 3999 ft 281 kts 88°
2026-05-03 21:34 26.07010 -79.88424 4002 ft 282 kts 88°
2026-05-03 21:34 26.07064 -79.86243 4002 ft 282 kts 88°
2026-05-03 21:34 26.06927 -79.84087 3996 ft 280 kts 108°
2026-05-03 21:34 26.05997 -79.82215 4003 ft 277 kts 136°
2026-05-03 21:35 26.04424 -79.81050 4000 ft 272 kts 164°
2026-05-03 21:35 26.02577 -79.80738 4004 ft 269 kts 180°
2026-05-03 21:35 26.00706 -79.80695 3996 ft 269 kts 182°
2026-05-03 21:35 25.98837 -79.80685 3996 ft 269 kts 182°
2026-05-03 21:36 25.96964 -79.80679 3996 ft 269 kts 182°
2026-05-03 21:36 25.95091 -79.80674 3997 ft 269 kts 182°
2026-05-03 21:36 25.93223 -79.80672 3995 ft 268 kts 182°
2026-05-03 21:36 25.91368 -79.80749 3991 ft 266 kts 193°
2026-05-03 21:37 25.89671 -79.81482 3990 ft 262 kts 214°
2026-05-03 21:37 25.88152 -79.82562 3995 ft 262 kts 214°
2026-05-03 21:37 25.86621 -79.83657 4071 ft 265 kts 214°
2026-05-03 21:37 25.85073 -79.84764 4891 ft 264 kts 215°
2026-05-03 21:38 25.83530 -79.85863 5706 ft 264 kts 215°
2026-05-03 21:38 25.81980 -79.86967 6474 ft 266 kts 215°
2026-05-03 21:38 25.80418 -79.88082 7181 ft 268 kts 215°
2026-05-03 21:38 25.78844 -79.89206 7881 ft 270 kts 215°
2026-05-03 21:39 25.77257 -79.90336 8578 ft 273 kts 215°
2026-05-03 21:39 25.75643 -79.91483 9284 ft 276 kts 215°
2026-05-03 21:39 25.74023 -79.92636 9981 ft 278 kts 216°
2026-05-03 21:39 25.72342 -79.93839 10220 ft 298 kts 216°
2026-05-03 21:40 25.70534 -79.95136 10340 ft 320 kts 215°
2026-05-03 21:40 25.68598 -79.96523 10461 ft 341 kts 215°
2026-05-03 21:40 25.66562 -79.97974 10794 ft 353 kts 215°
2026-05-03 21:40 25.64483 -79.99448 10956 ft 355 kts 215°
2026-05-03 21:41 25.62400 -80.00922 10994 ft 355 kts 215°
2026-05-03 21:41 25.60315 -80.02395 10988 ft 355 kts 214°
2026-05-03 21:41 25.58228 -80.03868 10990 ft 356 kts 214°
2026-05-03 21:41 25.56140 -80.05345 10994 ft 356 kts 214°
2026-05-03 21:42 25.54080 -80.06804 10989 ft 356 kts 215°
2026-05-03 21:42 25.51997 -80.08283 10996 ft 356 kts 215°
2026-05-03 21:42 25.49912 -80.09765 10996 ft 356 kts 215°
2026-05-03 21:42 25.47829 -80.11244 10996 ft 356 kts 215°
2026-05-03 21:43 25.45744 -80.12725 10992 ft 356 kts 215°
2026-05-03 21:43 25.43653 -80.14209 11277 ft 359 kts 215°
2026-05-03 21:43 25.41544 -80.15704 11934 ft 361 kts 215°
2026-05-03 21:43 25.39421 -80.17207 12565 ft 363 kts 215°
2026-05-03 21:44 25.37285 -80.18718 13179 ft 366 kts 215°
2026-05-03 21:44 25.35132 -80.20240 13818 ft 369 kts 215°
2026-05-03 21:44 25.32962 -80.21775 14388 ft 372 kts 215°
2026-05-03 21:44 25.30779 -80.23318 14961 ft 375 kts 215°
2026-05-03 21:45 25.28567 -80.24881 15501 ft 379 kts 215°
2026-05-03 21:45 25.26337 -80.26455 15878 ft 381 kts 215°
2026-05-03 21:45 25.24104 -80.28028 15976 ft 381 kts 215°
2026-05-03 21:45 25.21872 -80.29600 15998 ft 380 kts 215°
2026-05-03 21:46 25.19642 -80.31170 15992 ft 380 kts 215°
2026-05-03 21:46 25.17412 -80.32738 15993 ft 380 kts 215°
2026-05-03 21:46 25.15181 -80.34307 15992 ft 380 kts 215°
2026-05-03 21:46 25.12947 -80.35880 15992 ft 380 kts 215°
2026-05-03 21:47 25.10718 -80.37451 15994 ft 380 kts 215°
2026-05-03 21:47 25.08495 -80.39018 15992 ft 380 kts 215°
2026-05-03 21:47 25.06263 -80.40589 15990 ft 380 kts 215°
2026-05-03 21:47 25.04036 -80.42155 15990 ft 380 kts 215°
2026-05-03 21:48 25.01803 -80.43725 15977 ft 380 kts 215°
2026-05-03 21:48 24.99570 -80.45294 15989 ft 381 kts 215°
2026-05-03 21:48 24.97334 -80.46861 15989 ft 381 kts 214°
2026-05-03 21:48 24.95093 -80.48428 15990 ft 382 kts 214°
2026-05-03 21:49 24.92849 -80.49995 15990 ft 381 kts 214°
2026-05-03 21:49 24.90606 -80.51563 15990 ft 381 kts 214°
2026-05-03 21:49 24.88365 -80.53131 15838 ft 383 kts 214°
2026-05-03 21:49 24.86166 -80.54801 15335 ft 385 kts 221°
2026-05-03 21:50 24.84265 -80.56880 15106 ft 385 kts 232°
2026-05-03 21:50 24.82763 -80.59315 14871 ft 384 kts 242°
2026-05-03 21:50 24.81732 -80.61967 14640 ft 382 kts 252°
2026-05-03 21:50 24.81168 -80.64820 14405 ft 382 kts 262°
2026-05-03 21:51 24.80846 -80.67717 14182 ft 381 kts 263°
2026-05-03 21:51 24.80523 -80.70611 13961 ft 380 kts 262°
2026-05-03 21:51 24.80198 -80.73493 13721 ft 379 kts 262°
2026-05-03 21:51 24.79874 -80.76367 13464 ft 378 kts 262°
2026-05-03 21:52 24.79552 -80.79231 13211 ft 377 kts 262°
2026-05-03 21:52 24.79229 -80.82090 12958 ft 375 kts 262°
2026-05-03 21:52 24.78906 -80.84930 12709 ft 374 kts 262°
2026-05-03 21:52 24.78582 -80.87764 12461 ft 373 kts 262°
2026-05-03 21:53 24.78260 -80.90573 11981 ft 367 kts 262°
2026-05-03 21:53 24.77943 -80.93344 11414 ft 362 kts 263°
2026-05-03 21:53 24.77631 -80.96064 11066 ft 352 kts 263°
2026-05-03 21:53 24.77331 -80.98676 10948 ft 338 kts 263°
2026-05-03 21:54 24.76939 -81.01167 10826 ft 324 kts 255°
2026-05-03 21:54 24.76138 -81.03426 10706 ft 311 kts 243°
2026-05-03 21:54 24.75043 -81.05434 10585 ft 298 kts 239°
2026-05-03 21:54 24.73972 -81.07335 10455 ft 287 kts 240°
2026-05-03 21:55 24.72937 -81.09182 10283 ft 279 kts 240°
2026-05-03 21:55 24.71920 -81.11011 10217 ft 280 kts 240°
2026-05-03 21:55 24.70919 -81.12813 10109 ft 280 kts 240°
2026-05-03 21:55 24.69904 -81.14636 9976 ft 280 kts 240°
2026-05-03 21:56 24.68878 -81.16472 9539 ft 282 kts 240°
2026-05-03 21:56 24.67867 -81.18273 9019 ft 274 kts 239°
2026-05-03 21:56 24.66871 -81.20045 8368 ft 272 kts 239°
2026-05-03 21:56 24.65873 -81.21824 8075 ft 272 kts 239°
2026-05-03 21:57 24.64876 -81.23579 8006 ft 270 kts 236°
2026-05-03 21:57 24.63679 -81.25178 8013 ft 272 kts 230°
2026-05-03 21:57 24.62442 -81.26750 8010 ft 272 kts 230°
2026-05-03 21:57 24.61206 -81.28320 8013 ft 272 kts 230°
2026-05-03 21:58 24.59971 -81.29892 8011 ft 272 kts 230°
2026-05-03 21:58 24.58733 -81.31466 8005 ft 272 kts 231°
2026-05-03 21:58 24.57497 -81.33038 7816 ft 273 kts 231°
2026-05-03 21:58 24.56277 -81.34607 7410 ft 273 kts 233°
2026-05-03 21:59 24.55296 -81.36375 7047 ft 271 kts 243°
2026-05-03 21:59 24.54440 -81.38199 6831 ft 266 kts 243°
2026-05-03 21:59 24.53594 -81.40000 6703 ft 266 kts 243°
2026-05-03 21:59 24.52744 -81.41798 6552 ft 265 kts 242°
2026-05-03 22:00 24.51889 -81.43604 6433 ft 267 kts 243°
2026-05-03 22:00 24.51038 -81.45402 6289 ft 264 kts 243°
2026-05-03 22:00 24.50192 -81.47187 6168 ft 263 kts 243°
2026-05-03 22:00 24.49348 -81.48964 6037 ft 262 kts 242°
2026-05-03 22:01 24.48507 -81.50733 5912 ft 262 kts 242°
2026-05-03 22:01 24.47661 -81.52508 5776 ft 262 kts 242°
2026-05-03 22:01 24.46863 -81.54300 5654 ft 261 kts 249°
2026-05-03 22:01 24.46469 -81.56237 5516 ft 261 kts 265°
2026-05-03 22:02 24.46446 -81.58235 5396 ft 262 kts 268°
2026-05-03 22:02 24.46435 -81.60232 5265 ft 262 kts 268°
2026-05-03 22:02 24.46418 -81.62230 5137 ft 261 kts 268°
2026-05-03 22:02 24.46398 -81.64216 5010 ft 258 kts 268°
2026-05-03 22:03 24.46378 -81.66146 4902 ft 248 kts 268°
2026-05-03 22:03 24.46362 -81.67994 4792 ft 237 kts 268°
2026-05-03 22:03 24.46347 -81.69759 4687 ft 228 kts 268°
2026-05-03 22:03 24.46329 -81.71489 4589 ft 227 kts 268°
2026-05-03 22:04 24.46311 -81.73183 4502 ft 215 kts 268°
2026-05-03 22:04 24.46296 -81.74795 4378 ft 209 kts 268°
2026-05-03 22:04 24.46280 -81.76393 4276 ft 209 kts 268°
2026-05-03 22:04 24.46265 -81.77990 4173 ft 209 kts 268°
2026-05-03 22:05 24.46249 -81.79586 4070 ft 209 kts 268°
2026-05-03 22:05 24.46233 -81.81179 3966 ft 208 kts 268°
2026-05-03 22:05 24.46217 -81.82766 3866 ft 208 kts 268°
2026-05-03 22:05 24.46202 -81.84349 3765 ft 207 kts 268°
2026-05-03 22:06 24.46193 -81.85395 3695 ft 207 kts 268°
2026-05-03 22:06 24.46177 -81.86978 3594 ft 208 kts 268°
2026-05-03 22:06 24.46159 -81.88564 3489 ft 208 kts 268°
2026-05-03 22:06 24.46140 -81.90144 3391 ft 208 kts 268°
2026-05-03 22:07 24.46121 -81.91733 3291 ft 208 kts 268°
2026-05-03 22:07 24.46102 -81.93321 3186 ft 209 kts 268°
2026-05-03 22:07 24.46177 -81.94908 3075 ft 209 kts 285°
2026-05-03 22:07 24.46989 -81.96219 2971 ft 214 kts 322°
2026-05-03 22:08 24.48403 -81.96724 2854 ft 219 kts 356°
2026-05-03 22:08 24.49931 -81.96748 2717 ft 220 kts 357°
2026-05-03 22:08 24.51462 -81.96761 2594 ft 220 kts 357°
2026-05-03 22:08 24.52969 -81.96767 2467 ft 210 kts 359°
2026-05-03 22:09 24.54315 -81.96332 2343 ft 199 kts 32°
2026-05-03 22:09 24.55182 -81.95239 2226 ft 184 kts 66°
2026-05-03 22:09 24.55415 -81.93915 2134 ft 175 kts 91°
2026-05-03 22:10 24.55441 -81.91288 1947 ft 172 kts 89°
2026-05-03 22:10 24.55457 -81.89993 1869 ft 168 kts 90°
2026-05-03 22:10 24.55472 -81.88743 1786 ft 159 kts 89°
2026-05-03 22:10 24.55487 -81.87547 1682 ft 156 kts 89°
2026-05-03 22:11 24.55502 -81.86367 1589 ft 154 kts 89°
2026-05-03 22:11 24.55517 -81.85190 1506 ft 153 kts 89°
2026-05-03 22:11 24.55530 -81.84017 1330 ft 154 kts 89°
2026-05-03 22:11 24.55542 -81.82851 1122 ft 152 kts 89°
2026-05-03 22:12 24.55552 -81.81698 928 ft 151 kts 88°
2026-05-03 22:12 24.55560 -81.80550 717 ft 150 kts 88°
2026-05-03 22:12 24.55566 -81.79426 511 ft 144 kts 86°
2026-05-03 22:12 24.55581 -81.78344 320 ft 146 kts 83°
2026-05-03 22:13 24.55596 -81.77232 122 ft 145 kts 86°
2026-05-03 22:13 24.55610 -81.76148 12 ft 131 kts 89°
2026-05-03 22:13 24.55617 -81.75474 15 ft 55 kts 89°
2026-05-03 22:13 24.55610 -81.75251 15 ft 10 kts 134°
2026-05-03 22:14 24.55544 -81.75256 13 ft 5 kts 231°
2026-05-03 22:14 24.55541 -81.75261 13 ft 2 kts 236°
2026-05-03 22:14 24.55538 -81.75281 13 ft 4 kts 273°
2026-05-03 22:14 24.55530 -81.75310 12 ft 4 kts 220°
2026-05-03 22:15 24.55494 -81.75319 12 ft 6 kts 189°
2026-05-03 22:15 24.55457 -81.75336 12 ft 2 kts 210°
2026-05-03 22:15 24.55445 -81.75343 12 ft 0 kts 210°